THA662 VTBS-ZSPD

Flight info

Callsign THA662
Flight time 3h 33m
Altitude 41000
Route ALBOS1F ALBOS R474 LAVOS/K0900F410 R474 TEBAK/K0904S1250 R474 WUY R343 GOSMA W82 UPMAT W56 IDPOG A581 WHA R343 SASAN SAS82A
Aircraft A359/H-SDE2E3GHIJ3J4J5LM1ORWXY/LB1D1

Departure

Time 2026-05-06 23:21
Airport Suvarnabhumi Airport (VTBS)

Arrival

Time 2026-05-07 02:55
Airport Shanghai Pudong International Airport (ZSPD)
Time Latitude Longitude Altitude Speed Heading
2026-05-06 22:45 13.68047 100.75166 19 ft 0 kts 15°
2026-05-06 23:10 13.68046 100.75166 19 ft 2 kts 15°
2026-05-06 23:10 13.68021 100.75159 23 ft 4 kts 15°
2026-05-06 23:10 13.67995 100.75152 22 ft 4 kts 14°
2026-05-06 23:11 13.67975 100.75147 20 ft 4 kts 353°
2026-05-06 23:11 13.67960 100.75152 23 ft 4 kts 307°
2026-05-06 23:11 13.67948 100.75175 22 ft 4 kts 288°
2026-05-06 23:11 13.67940 100.75202 21 ft 4 kts 284°
2026-05-06 23:12 13.67938 100.75208 20 ft 0 kts 284°
2026-05-06 23:14 13.67946 100.75177 22 ft 9 kts 282°
2026-05-06 23:14 13.67962 100.75101 19 ft 12 kts 282°
2026-05-06 23:15 13.67983 100.75008 19 ft 15 kts 287°
2026-05-06 23:15 13.68015 100.74899 19 ft 17 kts 285°
2026-05-06 23:15 13.68049 100.74760 19 ft 21 kts 283°
2026-05-06 23:15 13.68086 100.74607 19 ft 23 kts 284°
2026-05-06 23:16 13.68131 100.74439 19 ft 25 kts 286°
2026-05-06 23:16 13.68179 100.74264 19 ft 26 kts 282°
2026-05-06 23:16 13.68213 100.74105 19 ft 24 kts 284°
2026-05-06 23:16 13.68313 100.74069 20 ft 17 kts 13°
2026-05-06 23:17 13.68449 100.74104 20 ft 22 kts 14°
2026-05-06 23:17 13.68601 100.74144 20 ft 23 kts 14°
2026-05-06 23:17 13.68764 100.74188 20 ft 25 kts 14°
2026-05-06 23:17 13.68938 100.74233 20 ft 26 kts 14°
2026-05-06 23:18 13.69121 100.74281 20 ft 28 kts 14°
2026-05-06 23:18 13.69308 100.74331 19 ft 26 kts 15°
2026-05-06 23:18 13.69485 100.74378 19 ft 26 kts 14°
2026-05-06 23:18 13.69666 100.74426 19 ft 28 kts 14°
2026-05-06 23:19 13.69853 100.74476 19 ft 27 kts 14°
2026-05-06 23:19 13.70038 100.74524 19 ft 25 kts 14°
2026-05-06 23:19 13.70203 100.74566 20 ft 21 kts 14°
2026-05-06 23:19 13.70302 100.74550 20 ft 14 kts 308°
2026-05-06 23:20 13.70332 100.74455 20 ft 15 kts 283°
2026-05-06 23:20 13.70343 100.74349 21 ft 14 kts 258°
2026-05-06 23:20 13.70279 100.74296 21 ft 13 kts 193°
2026-05-06 23:20 13.70104 100.74252 21 ft 51 kts 193°
2026-05-06 23:21 13.69513 100.74096 17 ft 122 kts 194°
2026-05-06 23:21 13.68502 100.73819 67 ft 173 kts 194°
2026-05-06 23:21 13.67397 100.73485 934 ft 161 kts 196°
2026-05-06 23:21 13.66300 100.73144 1566 ft 173 kts 197°
2026-05-06 23:22 13.65060 100.72808 1886 ft 197 kts 193°
2026-05-06 23:22 13.63647 100.72480 2264 ft 217 kts 193°
2026-05-06 23:22 13.62111 100.72109 2667 ft 239 kts 193°
2026-05-06 23:22 13.60426 100.71685 3154 ft 257 kts 193°
2026-05-06 23:23 13.58668 100.71231 3888 ft 263 kts 193°
2026-05-06 23:23 13.56874 100.70762 4661 ft 269 kts 193°
2026-05-06 23:23 13.55112 100.70064 5373 ft 276 kts 210°
2026-05-06 23:23 13.53765 100.68660 6133 ft 281 kts 240°
2026-05-06 23:24 13.53235 100.66758 6849 ft 286 kts 269°
2026-05-06 23:24 13.53530 100.64733 7620 ft 289 kts 285°
2026-05-06 23:24 13.54063 100.62731 8416 ft 293 kts 286°
2026-05-06 23:24 13.54632 100.60703 9220 ft 298 kts 289°
2026-05-06 23:25 13.55625 100.58833 9994 ft 301 kts 312°
2026-05-06 23:25 13.57310 100.57543 10521 ft 311 kts 338°
2026-05-06 23:25 13.59473 100.57132 10868 ft 326 kts
2026-05-06 23:25 13.61801 100.57214 11214 ft 343 kts
2026-05-06 23:26 13.64236 100.57410 11558 ft 358 kts 10°
2026-05-06 23:26 13.66645 100.58127 12031 ft 365 kts 26°
2026-05-06 23:26 13.68792 100.59525 12637 ft 368 kts 38°
2026-05-06 23:26 13.70791 100.61194 13232 ft 372 kts 40°
2026-05-06 23:27 13.72786 100.62915 13816 ft 376 kts 40°
2026-05-06 23:27 13.74798 100.64655 14337 ft 380 kts 40°
2026-05-06 23:27 13.76831 100.66415 14862 ft 383 kts 41°
2026-05-06 23:27 13.78880 100.68189 15411 ft 386 kts 41°
2026-05-06 23:28 13.80948 100.69980 15938 ft 390 kts 41°
2026-05-06 23:28 13.83058 100.71749 16451 ft 393 kts 38°
2026-05-06 23:28 13.85411 100.73205 16977 ft 398 kts 26°
2026-05-06 23:28 13.88040 100.74128 17503 ft 402 kts 16°
2026-05-06 23:29 13.90758 100.74841 18016 ft 405 kts 15°
2026-05-06 23:29 13.93507 100.75541 18459 ft 409 kts 15°
2026-05-06 23:29 13.96282 100.76253 18874 ft 412 kts 15°
2026-05-06 23:29 13.99071 100.76973 19317 ft 415 kts 15°
2026-05-06 23:30 14.01879 100.77700 19750 ft 417 kts 15°
2026-05-06 23:30 14.04702 100.78432 20171 ft 420 kts 15°
2026-05-06 23:30 14.07544 100.79170 20621 ft 423 kts 15°
2026-05-06 23:30 14.10410 100.79916 21048 ft 426 kts 15°
2026-05-06 23:31 14.13289 100.80665 21479 ft 429 kts 15°
2026-05-06 23:31 14.16159 100.81411 21915 ft 432 kts 15°
2026-05-06 23:31 14.19082 100.82172 22352 ft 434 kts 15°
2026-05-06 23:31 14.22023 100.82938 22781 ft 437 kts 15°
2026-05-06 23:32 14.24990 100.83711 23210 ft 441 kts 15°
2026-05-06 23:32 14.27974 100.84489 23607 ft 443 kts 15°
2026-05-06 23:32 14.30958 100.85286 23976 ft 445 kts 17°
2026-05-06 23:32 14.33897 100.86314 24344 ft 447 kts 22°
2026-05-06 23:33 14.36801 100.87483 24723 ft 449 kts 22°
2026-05-06 23:33 14.39712 100.88672 25128 ft 451 kts 22°
2026-05-06 23:33 14.42642 100.89866 25563 ft 453 kts 22°
2026-05-06 23:33 14.45580 100.91062 25998 ft 456 kts 22°
2026-05-06 23:34 14.48539 100.92266 26445 ft 458 kts 22°
2026-05-06 23:34 14.51513 100.93475 26904 ft 461 kts 22°
2026-05-06 23:34 14.54512 100.94695 27371 ft 464 kts 22°
2026-05-06 23:34 14.57523 100.95919 27828 ft 467 kts 21°
2026-05-06 23:35 14.60551 100.97151 28290 ft 470 kts 21°
2026-05-06 23:35 14.63607 100.98394 28745 ft 473 kts 21°
2026-05-06 23:35 14.66675 100.99643 29185 ft 476 kts 21°
2026-05-06 23:35 14.69765 101.00901 29634 ft 478 kts 21°
2026-05-06 23:36 14.72867 101.02164 30029 ft 481 kts 21°
2026-05-06 23:36 14.75991 101.03447 30354 ft 485 kts 22°
2026-05-06 23:36 14.79082 101.04879 30665 ft 488 kts 25°
2026-05-06 23:36 14.82139 101.06438 30967 ft 491 kts 26°
2026-05-06 23:37 14.85195 101.08050 31267 ft 495 kts 27°
2026-05-06 23:37 14.88268 101.09670 31564 ft 497 kts 26°
2026-05-06 23:37 14.91367 101.11284 31849 ft 500 kts 26°
2026-05-06 23:37 14.94497 101.12892 32122 ft 503 kts 26°
2026-05-06 23:38 14.97645 101.14492 32408 ft 506 kts 26°
2026-05-06 23:38 15.00818 101.16095 32677 ft 508 kts 25°
2026-05-06 23:38 15.03997 101.17696 33062 ft 508 kts 25°
2026-05-06 23:38 15.07136 101.19277 33425 ft 508 kts 25°
2026-05-06 23:39 15.10314 101.20878 33787 ft 508 kts 25°
2026-05-06 23:39 15.13487 101.22479 34113 ft 508 kts 25°
2026-05-06 23:39 15.16667 101.24084 34470 ft 507 kts 25°
2026-05-06 23:39 15.19830 101.25682 34844 ft 505 kts 25°
2026-05-06 23:40 15.22984 101.27277 35216 ft 504 kts 25°
2026-05-06 23:40 15.26131 101.28868 35585 ft 503 kts 25°
2026-05-06 23:40 15.29271 101.30457 35945 ft 501 kts 25°
2026-05-06 23:40 15.32396 101.32038 36296 ft 500 kts 25°
2026-05-06 23:41 15.35523 101.33621 36637 ft 499 kts 25°
2026-05-06 23:41 15.38636 101.35197 36969 ft 498 kts 25°
2026-05-06 23:41 15.41747 101.36773 37307 ft 497 kts 25°
2026-05-06 23:41 15.44850 101.38345 37640 ft 496 kts 25°
2026-05-06 23:42 15.47949 101.39915 37953 ft 496 kts 25°
2026-05-06 23:42 15.51049 101.41487 38255 ft 495 kts 25°
2026-05-06 23:42 15.54142 101.43055 38532 ft 495 kts 25°
2026-05-06 23:42 15.57235 101.44624 38767 ft 494 kts 25°
2026-05-06 23:43 15.60331 101.46196 39005 ft 494 kts 25°
2026-05-06 23:43 15.63418 101.47763 39234 ft 494 kts 25°
2026-05-06 23:43 15.66500 101.49328 39460 ft 493 kts 25°
2026-05-06 23:43 15.69584 101.50895 39677 ft 493 kts 25°
2026-05-06 23:44 15.72664 101.52460 39895 ft 492 kts 25°
2026-05-06 23:44 15.75739 101.54023 40107 ft 492 kts 25°
2026-05-06 23:44 15.78808 101.55585 40317 ft 492 kts 25°
2026-05-06 23:44 15.81882 101.57148 40531 ft 491 kts 25°
2026-05-06 23:45 15.84948 101.58708 40726 ft 491 kts 25°
2026-05-06 23:45 15.88013 101.60269 40862 ft 491 kts 25°
2026-05-06 23:45 15.91086 101.61833 40892 ft 491 kts 25°
2026-05-06 23:46 15.97207 101.64952 40892 ft 490 kts 25°
2026-05-06 23:46 16.03292 101.68055 40902 ft 490 kts 25°
2026-05-06 23:47 16.09457 101.71200 40904 ft 490 kts 25°
2026-05-06 23:47 16.15544 101.74307 40905 ft 490 kts 25°
2026-05-06 23:48 16.21667 101.77436 40911 ft 491 kts 25°
2026-05-06 23:48 16.27800 101.80572 40908 ft 491 kts 25°
2026-05-06 23:49 16.33934 101.83710 40908 ft 491 kts 25°
2026-05-06 23:49 16.40071 101.86853 40912 ft 491 kts 25°
2026-05-06 23:50 16.46202 101.89994 40911 ft 491 kts 25°
2026-05-06 23:50 16.55412 101.94717 40904 ft 491 kts 25°
2026-05-06 23:51 16.61554 101.97869 40909 ft 491 kts 25°
2026-05-06 23:51 16.67851 102.00610 40906 ft 490 kts 19°
2026-05-06 23:52 16.74218 102.03161 40901 ft 490 kts 19°
2026-05-06 23:52 16.80556 102.05671 40896 ft 490 kts 19°
2026-05-06 23:53 16.86938 102.08205 40898 ft 490 kts 19°
2026-05-06 23:53 16.93309 102.10743 40898 ft 490 kts 19°
2026-05-06 23:54 16.99685 102.13288 40893 ft 490 kts 19°
2026-05-06 23:54 17.06062 102.15835 40893 ft 490 kts 19°
2026-05-06 23:55 17.12401 102.18368 40891 ft 490 kts 19°
2026-05-06 23:55 17.18779 102.20919 40889 ft 490 kts 19°
2026-05-06 23:56 17.25157 102.23472 40880 ft 491 kts 19°
2026-05-06 23:56 17.31536 102.26027 40881 ft 490 kts 19°
2026-05-06 23:57 17.37908 102.28580 40882 ft 491 kts 19°
2026-05-06 23:57 17.44251 102.31125 40877 ft 491 kts 19°
2026-05-06 23:58 17.50639 102.33689 40878 ft 491 kts 19°
2026-05-06 23:58 17.55946 102.35821 40878 ft 491 kts 19°
2026-05-06 23:59 17.62334 102.38389 40873 ft 491 kts 19°
2026-05-06 23:59 17.68720 102.40958 40878 ft 492 kts 19°
2026-05-07 00:00 17.75112 102.43532 40878 ft 492 kts 19°
2026-05-07 00:00 17.81506 102.46109 40879 ft 492 kts 19°
2026-05-07 00:01 17.87909 102.48696 40882 ft 492 kts 19°
2026-05-07 00:01 17.94304 102.51298 40884 ft 493 kts 19°
2026-05-07 00:02 18.00605 102.54071 40886 ft 496 kts 26°
2026-05-07 00:02 18.06410 102.58008 40885 ft 498 kts 33°
2026-05-07 00:03 18.12060 102.62229 40882 ft 498 kts 34°
2026-05-07 00:03 18.17682 102.66487 40882 ft 498 kts 34°
2026-05-07 00:04 18.23328 102.70746 40881 ft 499 kts 33°
2026-05-07 00:04 18.28970 102.74987 40884 ft 499 kts 33°
2026-05-07 00:05 18.34626 102.79235 40891 ft 499 kts 33°
2026-05-07 00:05 18.40259 102.83472 40893 ft 500 kts 33°
2026-05-07 00:06 18.45922 102.87735 40900 ft 500 kts 33°
2026-05-07 00:06 18.51587 102.92003 40908 ft 500 kts 33°
2026-05-07 00:07 18.57255 102.96277 40920 ft 500 kts 33°
2026-05-07 00:07 18.62892 103.00532 40924 ft 501 kts 34°
2026-05-07 00:08 18.68561 103.04815 40929 ft 501 kts 33°
2026-05-07 00:08 18.74228 103.09099 40941 ft 501 kts 34°
2026-05-07 00:09 18.79900 103.13391 40945 ft 501 kts 34°
2026-05-07 00:09 18.85561 103.17678 40948 ft 501 kts 34°
2026-05-07 00:10 18.91188 103.21942 40951 ft 501 kts 34°
2026-05-07 00:10 18.96868 103.26250 40958 ft 501 kts 33°
2026-05-07 00:11 19.02524 103.30544 40963 ft 501 kts 33°
2026-05-07 00:11 19.08198 103.34856 40961 ft 502 kts 33°
2026-05-07 00:12 19.13866 103.39168 40964 ft 502 kts 33°
2026-05-07 00:12 19.19507 103.43461 40965 ft 502 kts 33°
2026-05-07 00:13 19.25177 103.47781 40970 ft 502 kts 33°
2026-05-07 00:13 19.30847 103.52105 40970 ft 502 kts 33°
2026-05-07 00:14 19.36517 103.56431 40971 ft 502 kts 33°
2026-05-07 00:14 19.42184 103.60760 40973 ft 502 kts 33°
2026-05-07 00:15 19.47799 103.65079 40975 ft 502 kts 34°
2026-05-07 00:15 19.53445 103.69461 40973 ft 502 kts 34°
2026-05-07 00:16 19.59081 103.73837 40966 ft 502 kts 34°
2026-05-07 00:16 19.64731 103.78221 40968 ft 503 kts 34°
2026-05-07 00:17 19.70375 103.82601 40969 ft 503 kts 34°
2026-05-07 00:17 19.75990 103.86965 40964 ft 503 kts 34°
2026-05-07 00:18 19.81634 103.91356 40965 ft 503 kts 34°
2026-05-07 00:18 19.87269 103.95742 40966 ft 502 kts 34°
2026-05-07 00:19 19.92910 104.00137 40968 ft 503 kts 34°
2026-05-07 00:19 19.98585 104.04560 40976 ft 509 kts 34°
2026-05-07 00:20 20.04324 104.09037 40974 ft 514 kts 34°
2026-05-07 00:20 20.10091 104.13544 40974 ft 515 kts 34°
2026-05-07 00:21 20.15864 104.18061 40972 ft 514 kts 34°
2026-05-07 00:21 20.21625 104.22572 40964 ft 514 kts 34°
2026-05-07 00:22 20.27388 104.27086 40965 ft 514 kts 34°
2026-05-07 00:22 20.33109 104.31573 40958 ft 514 kts 34°
2026-05-07 00:23 20.38871 104.36098 40955 ft 514 kts 34°
2026-05-07 00:23 20.44627 104.40622 40952 ft 514 kts 34°
2026-05-07 00:24 20.50409 104.45091 40947 ft 514 kts 33°
2026-05-07 00:24 20.56220 104.49531 40947 ft 514 kts 33°
2026-05-07 00:25 20.62031 104.53986 40937 ft 514 kts 33°
2026-05-07 00:25 20.67834 104.58454 40944 ft 514 kts 33°
2026-05-07 00:26 20.73637 104.62932 40946 ft 515 kts 33°
2026-05-07 00:26 20.79319 104.67584 40939 ft 517 kts 41°
2026-05-07 00:27 20.83773 104.73610 40937 ft 520 kts 60°
2026-05-07 00:27 20.86604 104.80743 40938 ft 522 kts 69°
2026-05-07 00:28 20.89056 104.88002 40935 ft 522 kts 69°
2026-05-07 00:28 20.91497 104.95321 40931 ft 522 kts 69°
2026-05-07 00:29 20.93965 105.02621 40930 ft 521 kts 69°
2026-05-07 00:30 20.98926 105.17184 40919 ft 521 kts 69°
2026-05-07 00:30 21.01404 105.24473 40915 ft 521 kts 69°
2026-05-07 00:31 21.03859 105.31711 40913 ft 520 kts 69°
2026-05-07 00:31 21.06323 105.38987 40906 ft 520 kts 69°
2026-05-07 00:32 21.08787 105.46275 40910 ft 520 kts 69°
2026-05-07 00:32 21.11246 105.53559 40908 ft 520 kts 69°
2026-05-07 00:33 21.13703 105.60848 40910 ft 520 kts 69°
2026-05-07 00:33 21.16156 105.68138 40910 ft 520 kts 69°
2026-05-07 00:34 21.18605 105.75429 40914 ft 520 kts 69°
2026-05-07 00:34 21.21662 105.82409 40912 ft 517 kts 54°
2026-05-07 00:35 21.26478 105.88022 40911 ft 512 kts 39°
2026-05-07 00:35 21.31969 105.92885 40908 ft 512 kts 36°
2026-05-07 00:36 21.37505 105.97618 40913 ft 512 kts 36°
2026-05-07 00:36 21.43068 106.02409 40914 ft 513 kts 37°
2026-05-07 00:37 21.48606 106.07224 40920 ft 513 kts 37°
2026-05-07 00:37 21.54142 106.12055 40922 ft 513 kts 37°
2026-05-07 00:38 21.59676 106.16891 40920 ft 513 kts 37°
2026-05-07 00:38 21.65205 106.21726 40936 ft 513 kts 37°
2026-05-07 00:39 21.70736 106.26566 40930 ft 512 kts 37°
2026-05-07 00:39 21.76263 106.31407 40933 ft 512 kts 37°
2026-05-07 00:40 21.81791 106.36255 40931 ft 512 kts 37°
2026-05-07 00:40 21.87311 106.41098 40941 ft 512 kts 37°
2026-05-07 00:41 21.92804 106.45924 40945 ft 512 kts 37°
2026-05-07 00:41 21.98327 106.50781 40939 ft 512 kts 37°
2026-05-07 00:42 22.03869 106.55615 40939 ft 512 kts 37°
2026-05-07 00:42 22.09417 106.60439 40937 ft 512 kts 37°
2026-05-07 00:43 22.14961 106.65270 40937 ft 512 kts 37°
2026-05-07 00:43 22.20258 106.70420 40920 ft 514 kts 42°
2026-05-07 00:44 22.25377 106.75822 40935 ft 514 kts 42°
2026-05-07 00:44 22.30466 106.81265 40916 ft 515 kts 43°
2026-05-07 00:45 22.34766 106.87410 40934 ft 519 kts 60°
2026-05-07 00:45 22.37164 106.94771 40921 ft 522 kts 76°
2026-05-07 00:46 22.38610 107.02459 41116 ft 520 kts 78°
2026-05-07 00:46 22.39264 107.06280 41491 ft 515 kts 78°
2026-05-07 00:46 22.39912 107.10068 41796 ft 512 kts 78°
2026-05-07 00:47 22.41228 107.17611 41447 ft 511 kts 78°
2026-05-07 00:47 22.41902 107.21400 41086 ft 516 kts 78°
2026-05-07 00:47 22.42586 107.25225 40945 ft 519 kts 78°
2026-05-07 00:48 22.43980 107.32929 40921 ft 523 kts 78°
2026-05-07 00:48 22.45143 107.39348 40920 ft 523 kts 78°
2026-05-07 00:49 22.46535 107.47067 40934 ft 523 kts 78°
2026-05-07 00:49 22.47922 107.54786 40928 ft 523 kts 78°
2026-05-07 00:50 22.49305 107.62507 40921 ft 523 kts 78°
2026-05-07 00:50 22.50684 107.70227 40917 ft 523 kts 78°
2026-05-07 00:51 22.52058 107.77943 40916 ft 523 kts 78°
2026-05-07 00:51 22.53430 107.85668 40936 ft 523 kts 78°
2026-05-07 00:52 22.54788 107.93334 40920 ft 523 kts 78°
2026-05-07 00:52 22.56153 108.01064 40928 ft 523 kts 78°
2026-05-07 00:53 22.57664 108.08750 40927 ft 521 kts 71°
2026-05-07 00:53 22.60812 108.15722 40929 ft 515 kts 51°
2026-05-07 00:54 22.65822 108.21158 40923 ft 509 kts 36°
2026-05-07 00:54 22.71398 108.25879 40926 ft 509 kts 34°
2026-05-07 00:55 22.77037 108.30523 40929 ft 509 kts 34°
2026-05-07 00:55 22.82653 108.35199 40929 ft 510 kts 34°
2026-05-07 00:56 22.88257 108.39909 40934 ft 509 kts 34°
2026-05-07 00:56 22.93815 108.44600 40937 ft 510 kts 34°
2026-05-07 00:57 22.99406 108.49322 40934 ft 509 kts 34°
2026-05-07 00:57 23.04999 108.54048 40934 ft 510 kts 34°
2026-05-07 00:58 23.10594 108.58781 40936 ft 509 kts 34°
2026-05-07 00:58 23.16187 108.63518 40936 ft 509 kts 34°
2026-05-07 00:59 23.24564 108.70619 40942 ft 509 kts 34°
2026-05-07 01:00 23.30142 108.75356 40935 ft 508 kts 34°
2026-05-07 01:00 23.35687 108.80050 40936 ft 508 kts 34°
2026-05-07 01:01 23.41252 108.84767 40928 ft 507 kts 34°
2026-05-07 01:01 23.46813 108.89491 40931 ft 507 kts 34°
2026-05-07 01:02 23.52372 108.94219 40928 ft 506 kts 34°
2026-05-07 01:02 23.57920 108.98941 40930 ft 506 kts 34°
2026-05-07 01:03 23.63481 109.03680 40930 ft 506 kts 34°
2026-05-07 01:03 23.69032 109.08417 40936 ft 507 kts 34°
2026-05-07 01:04 23.74583 109.13159 40930 ft 507 kts 34°
2026-05-07 01:04 23.80204 109.17781 40933 ft 504 kts 30°
2026-05-07 01:05 23.86025 109.21942 40935 ft 503 kts 28°
2026-05-07 01:05 23.91899 109.26091 40932 ft 503 kts 28°
2026-05-07 01:06 23.97739 109.30315 40930 ft 503 kts 29°
2026-05-07 01:06 24.03559 109.34583 40930 ft 503 kts 29°
2026-05-07 01:07 24.09360 109.38852 40919 ft 502 kts 29°
2026-05-07 01:07 24.15165 109.43124 40928 ft 502 kts 29°
2026-05-07 01:08 24.20960 109.47391 40928 ft 502 kts 29°
2026-05-07 01:08 24.26754 109.51661 40923 ft 502 kts 29°
2026-05-07 01:09 24.32537 109.55928 40923 ft 501 kts 29°
2026-05-07 01:09 24.38323 109.60204 40922 ft 501 kts 29°
2026-05-07 01:10 24.44100 109.64476 40929 ft 501 kts 29°
2026-05-07 01:10 24.49884 109.68756 40927 ft 501 kts 29°
2026-05-07 01:11 24.55677 109.73050 40926 ft 502 kts 29°
2026-05-07 01:11 24.61464 109.77345 40928 ft 502 kts 29°
2026-05-07 01:12 24.67222 109.81624 40933 ft 503 kts 29°
2026-05-07 01:12 24.73027 109.85934 40923 ft 503 kts 29°
2026-05-07 01:13 24.78844 109.90236 40931 ft 504 kts 29°
2026-05-07 01:13 24.84657 109.94541 40928 ft 504 kts 28°
2026-05-07 01:14 24.90469 109.98856 40925 ft 504 kts 28°
2026-05-07 01:14 24.96277 110.03172 40918 ft 504 kts 28°
2026-05-07 01:15 25.02082 110.07492 40917 ft 503 kts 28°
2026-05-07 01:15 25.07887 110.11816 40913 ft 503 kts 28°
2026-05-07 01:16 25.13695 110.16148 40913 ft 503 kts 28°
2026-05-07 01:16 25.19498 110.20482 40913 ft 504 kts 28°
2026-05-07 01:17 25.25271 110.24788 40917 ft 504 kts 28°
2026-05-07 01:17 25.31094 110.29106 40915 ft 504 kts 28°
2026-05-07 01:18 25.36912 110.33426 40917 ft 504 kts 28°
2026-05-07 01:18 25.42738 110.37763 40924 ft 505 kts 28°
2026-05-07 01:19 25.48580 110.42094 40925 ft 505 kts 28°
2026-05-07 01:19 25.54452 110.46404 40927 ft 506 kts 27°
2026-05-07 01:20 25.60339 110.50665 40927 ft 505 kts 26°
2026-05-07 01:20 25.66321 110.54768 40935 ft 506 kts 26°
2026-05-07 01:21 25.72318 110.58869 40937 ft 506 kts 26°
2026-05-07 01:21 25.78306 110.62996 40940 ft 506 kts 26°
2026-05-07 01:22 25.84282 110.67020 40946 ft 506 kts 25°
2026-05-07 01:22 25.90314 110.71063 40946 ft 506 kts 25°
2026-05-07 01:23 25.96340 110.75121 40951 ft 507 kts 25°
2026-05-07 01:23 26.02378 110.79212 40961 ft 508 kts 26°
2026-05-07 01:24 26.08427 110.83311 40943 ft 509 kts 26°
2026-05-07 01:24 26.14484 110.87417 40942 ft 509 kts 26°
2026-05-07 01:25 26.20532 110.91524 40959 ft 511 kts 26°
2026-05-07 01:25 26.26602 110.95651 40946 ft 511 kts 26°
2026-05-07 01:26 26.32662 110.99780 40948 ft 510 kts 26°
2026-05-07 01:26 26.38723 111.03916 40951 ft 510 kts 26°
2026-05-07 01:27 26.44764 111.08040 40940 ft 508 kts 26°
2026-05-07 01:27 26.50792 111.12158 40945 ft 509 kts 26°
2026-05-07 01:28 26.56838 111.16296 40944 ft 509 kts 26°
2026-05-07 01:28 26.62822 111.20485 40942 ft 512 kts 27°
2026-05-07 01:29 26.68776 111.24882 40945 ft 513 kts 28°
2026-05-07 01:29 26.74727 111.29299 40937 ft 513 kts 27°
2026-05-07 01:30 26.80704 111.33702 40940 ft 515 kts 27°
2026-05-07 01:30 26.86704 111.38110 40941 ft 516 kts 27°
2026-05-07 01:31 26.92716 111.42529 40937 ft 516 kts 27°
2026-05-07 01:31 26.98846 111.46680 40940 ft 514 kts 24°
2026-05-07 01:32 27.05071 111.50659 40939 ft 515 kts 23°
2026-05-07 01:32 27.11284 111.54681 40942 ft 516 kts 24°
2026-05-07 01:33 27.17482 111.58754 40941 ft 516 kts 24°
2026-05-07 01:33 27.23627 111.62931 40938 ft 517 kts 25°
2026-05-07 01:34 27.29737 111.67194 40941 ft 517 kts 25°
2026-05-07 01:34 27.35811 111.71424 40947 ft 516 kts 25°
2026-05-07 01:35 27.41925 111.75667 40953 ft 516 kts 25°
2026-05-07 01:35 27.48043 111.79910 40955 ft 517 kts 25°
2026-05-07 01:36 27.54156 111.84154 40943 ft 516 kts 25°
2026-05-07 01:36 27.60289 111.88417 40949 ft 516 kts 25°
2026-05-07 01:37 27.66370 111.92651 40947 ft 516 kts 25°
2026-05-07 01:37 27.72490 111.96918 40952 ft 517 kts 25°
2026-05-07 01:38 27.78610 112.01194 40952 ft 518 kts 25°
2026-05-07 01:38 27.83705 112.04759 40956 ft 518 kts 25°
2026-05-07 01:39 27.89840 112.09042 40957 ft 519 kts 25°
2026-05-07 01:39 27.95982 112.13337 40959 ft 520 kts 25°
2026-05-07 01:40 28.02145 112.17627 40964 ft 520 kts 24°
2026-05-07 01:40 28.08329 112.21886 40960 ft 521 kts 25°
2026-05-07 01:41 28.14320 112.26600 40970 ft 526 kts 30°
2026-05-07 01:41 28.20204 112.31546 40961 ft 526 kts 30°
2026-05-07 01:42 28.26149 112.36362 40961 ft 525 kts 28°
2026-05-07 01:42 28.32138 112.41105 40964 ft 525 kts 28°
2026-05-07 01:43 28.38130 112.45848 40959 ft 525 kts 28°
2026-05-07 01:43 28.44122 112.50611 40959 ft 526 kts 28°
2026-05-07 01:44 28.50071 112.55356 40957 ft 526 kts 28°
2026-05-07 01:44 28.56058 112.60139 40954 ft 525 kts 28°
2026-05-07 01:45 28.62032 112.64917 40957 ft 525 kts 28°
2026-05-07 01:45 28.68012 112.69707 40954 ft 525 kts 28°
2026-05-07 01:46 28.73990 112.74502 40954 ft 525 kts 28°
2026-05-07 01:46 28.79965 112.79301 40955 ft 525 kts 28°
2026-05-07 01:47 28.85934 112.84103 40954 ft 525 kts 28°
2026-05-07 01:47 28.91911 112.88916 40953 ft 525 kts 28°
2026-05-07 01:48 28.97836 112.93696 40954 ft 525 kts 28°
2026-05-07 01:48 29.03804 112.98519 40955 ft 525 kts 28°
2026-05-07 01:49 29.09762 113.03340 40956 ft 525 kts 28°
2026-05-07 01:49 29.15726 113.08172 40957 ft 525 kts 28°
2026-05-07 01:50 29.21681 113.13004 40956 ft 525 kts 28°
2026-05-07 01:50 29.27643 113.17849 40957 ft 525 kts 28°
2026-05-07 01:51 29.33601 113.22692 40953 ft 524 kts 28°
2026-05-07 01:51 29.39856 113.26828 40962 ft 516 kts 20°
2026-05-07 01:52 29.46216 113.30647 40961 ft 516 kts 20°
2026-05-07 01:52 29.52592 113.34426 40968 ft 516 kts 20°
2026-05-07 01:53 29.58972 113.38221 40975 ft 516 kts 20°
2026-05-07 01:53 29.65334 113.42023 40961 ft 515 kts 20°
2026-05-07 01:54 29.71700 113.45838 40979 ft 516 kts 20°
2026-05-07 01:54 29.78069 113.49659 40970 ft 516 kts 20°
2026-05-07 01:55 29.84397 113.53462 40978 ft 516 kts 20°
2026-05-07 01:55 29.90769 113.57296 40984 ft 517 kts 20°
2026-05-07 01:56 29.97151 113.61092 40984 ft 514 kts 18°
2026-05-07 01:56 30.03691 113.64363 40981 ft 511 kts 14°
2026-05-07 01:57 30.10267 113.67480 40990 ft 511 kts 14°
2026-05-07 01:57 30.16834 113.70680 40993 ft 512 kts 15°
2026-05-07 01:58 30.23381 113.73944 40994 ft 513 kts 15°
2026-05-07 01:58 30.29932 113.77231 40998 ft 513 kts 15°
2026-05-07 01:59 30.36486 113.80525 40997 ft 513 kts 15°
2026-05-07 01:59 30.43042 113.83819 41001 ft 513 kts 15°
2026-05-07 02:00 30.49591 113.87114 40999 ft 514 kts 15°
2026-05-07 02:00 30.56150 113.90419 41008 ft 514 kts 15°
2026-05-07 02:01 30.62462 113.94482 41012 ft 531 kts 31°
2026-05-07 02:01 30.65211 113.97402 41010 ft 541 kts 42°
2026-05-07 02:01 30.67534 114.00879 40999 ft 548 kts 50°
2026-05-07 02:02 30.71707 114.08275 41002 ft 552 kts 53°
2026-05-07 02:02 30.75781 114.15850 40991 ft 553 kts 53°
2026-05-07 02:03 30.79326 114.23831 40996 ft 560 kts 63°
2026-05-07 02:03 30.82211 114.32256 40998 ft 561 kts 65°
2026-05-07 02:04 30.84936 114.40781 40998 ft 562 kts 66°
2026-05-07 02:04 30.87633 114.49324 40997 ft 562 kts 66°
2026-05-07 02:05 30.90377 114.57840 41005 ft 562 kts 65°
2026-05-07 02:05 30.93149 114.66364 41001 ft 562 kts 65°
2026-05-07 02:06 30.95911 114.74888 40997 ft 562 kts 65°
2026-05-07 02:06 30.98658 114.83405 40999 ft 562 kts 66°
2026-05-07 02:07 31.01402 114.91943 40999 ft 562 kts 66°
2026-05-07 02:07 31.05478 115.04673 41000 ft 561 kts 66°
2026-05-07 02:08 31.08199 115.13196 40997 ft 561 kts 66°
2026-05-07 02:08 31.10914 115.21722 41006 ft 560 kts 66°
2026-05-07 02:09 31.13607 115.30250 41002 ft 559 kts 66°
2026-05-07 02:09 31.16345 115.38748 41005 ft 559 kts 65°
2026-05-07 02:10 31.19106 115.47228 41007 ft 558 kts 65°
2026-05-07 02:10 31.21855 115.55714 41008 ft 558 kts 66°
2026-05-07 02:11 31.24586 115.64198 41008 ft 557 kts 66°
2026-05-07 02:11 31.27305 115.72677 41011 ft 557 kts 66°
2026-05-07 02:12 31.30015 115.81158 41012 ft 556 kts 66°
2026-05-07 02:12 31.32714 115.89631 41010 ft 556 kts 66°
2026-05-07 02:13 31.35458 115.98087 41007 ft 556 kts 65°
2026-05-07 02:13 31.38228 116.06532 41004 ft 556 kts 65°
2026-05-07 02:14 31.40991 116.15002 41004 ft 557 kts 65°
2026-05-07 02:14 31.43717 116.23413 40996 ft 556 kts 66°
2026-05-07 02:15 31.46457 116.31897 40988 ft 556 kts 66°
2026-05-07 02:15 31.49187 116.40375 40986 ft 556 kts 66°
2026-05-07 02:16 31.51914 116.48862 40981 ft 557 kts 66°
2026-05-07 02:16 31.54638 116.57361 40972 ft 557 kts 66°
2026-05-07 02:17 31.57353 116.65858 40977 ft 557 kts 66°
2026-05-07 02:17 31.60066 116.74370 40971 ft 556 kts 66°
2026-05-07 02:18 31.62779 116.82898 40976 ft 561 kts 66°
2026-05-07 02:18 31.65512 116.91512 40960 ft 564 kts 66°
2026-05-07 02:19 31.68240 117.00143 40964 ft 564 kts 66°
2026-05-07 02:19 31.70944 117.08777 40966 ft 564 kts 66°
2026-05-07 02:20 31.73608 117.17442 40959 ft 563 kts 66°
2026-05-07 02:20 31.76195 117.26132 40951 ft 565 kts 71°
2026-05-07 02:21 31.76976 117.30669 40947 ft 569 kts 82°
2026-05-07 02:21 31.77116 117.35318 40951 ft 570 kts 91°
2026-05-07 02:21 31.76638 117.44629 40941 ft 571 kts 94°
2026-05-07 02:22 31.75935 117.53913 40941 ft 571 kts 95°
2026-05-07 02:22 31.75235 117.63145 40939 ft 571 kts 95°
2026-05-07 02:23 31.74563 117.72434 40939 ft 571 kts 94°
2026-05-07 02:23 31.73902 117.81727 40936 ft 571 kts 94°
2026-05-07 02:24 31.73234 117.91024 40933 ft 571 kts 94°
2026-05-07 02:24 31.72558 118.00301 40931 ft 570 kts 94°
2026-05-07 02:25 31.71875 118.09583 40929 ft 570 kts 95°
2026-05-07 02:25 31.71213 118.18860 40924 ft 570 kts 94°
2026-05-07 02:26 31.70681 118.26573 40924 ft 570 kts 94°
2026-05-07 02:26 31.70036 118.35846 40922 ft 570 kts 94°
2026-05-07 02:27 31.69379 118.45118 40922 ft 569 kts 94°
2026-05-07 02:27 31.68714 118.54369 40925 ft 569 kts 94°
2026-05-07 02:28 31.68041 118.63631 40930 ft 569 kts 94°
2026-05-07 02:28 31.67362 118.72887 40931 ft 569 kts 94°
2026-05-07 02:29 31.66677 118.82138 40939 ft 569 kts 94°
2026-05-07 02:29 31.65985 118.91389 40938 ft 569 kts 95°
2026-05-07 02:30 31.65292 119.00577 40935 ft 568 kts 94°
2026-05-07 02:30 31.64647 119.09820 40928 ft 568 kts 93°
2026-05-07 02:31 31.64205 119.19078 40923 ft 568 kts 92°
2026-05-07 02:31 31.63843 119.28333 40918 ft 568 kts 92°
2026-05-07 02:32 31.63454 119.37588 40918 ft 567 kts 92°
2026-05-07 02:32 31.63035 119.46820 40744 ft 565 kts 92°
2026-05-07 02:33 31.62814 119.51421 40506 ft 565 kts 92°
2026-05-07 02:33 31.62589 119.56022 40263 ft 565 kts 92°
2026-05-07 02:33 31.62362 119.60624 39883 ft 563 kts 92°
2026-05-07 02:33 31.62137 119.65190 39322 ft 560 kts 92°
2026-05-07 02:34 31.61914 119.69747 38747 ft 558 kts 92°
2026-05-07 02:34 31.61706 119.74279 38055 ft 556 kts 92°
2026-05-07 02:34 31.61501 119.78814 37273 ft 556 kts 92°
2026-05-07 02:34 31.61294 119.83333 36541 ft 555 kts 92°
2026-05-07 02:35 31.61084 119.87855 35820 ft 554 kts 92°
2026-05-07 02:35 31.60874 119.92363 35131 ft 553 kts 93°
2026-05-07 02:35 31.60661 119.96859 34449 ft 552 kts 93°
2026-05-07 02:35 31.60447 120.01346 33729 ft 552 kts 93°
2026-05-07 02:36 31.60232 120.05838 32924 ft 549 kts 93°
2026-05-07 02:36 31.60018 120.10252 32132 ft 534 kts 93°
2026-05-07 02:36 31.59809 120.14550 31332 ft 522 kts 93°
2026-05-07 02:36 31.59603 120.18751 30548 ft 510 kts 93°
2026-05-07 02:37 31.59400 120.22863 29733 ft 499 kts 93°
2026-05-07 02:37 31.59199 120.26894 28826 ft 492 kts 93°
2026-05-07 02:37 31.58938 120.30881 27943 ft 488 kts 98°
2026-05-07 02:37 31.58163 120.34719 27102 ft 482 kts 109°
2026-05-07 02:38 31.57092 120.38419 26279 ft 477 kts 110°
2026-05-07 02:38 31.55999 120.42061 25474 ft 469 kts 111°
2026-05-07 02:38 31.54936 120.45619 24691 ft 456 kts 110°
2026-05-07 02:38 31.53902 120.49093 23923 ft 445 kts 110°
2026-05-07 02:39 31.52889 120.52502 23129 ft 442 kts 111°
2026-05-07 02:39 31.51878 120.55905 22249 ft 442 kts 111°
2026-05-07 02:39 31.50872 120.59293 21407 ft 438 kts 111°
2026-05-07 02:39 31.49879 120.62637 20457 ft 430 kts 111°
2026-05-07 02:40 31.48912 120.65896 19797 ft 418 kts 111°
2026-05-07 02:40 31.47967 120.69074 19542 ft 408 kts 111°
2026-05-07 02:40 31.47040 120.72186 19212 ft 402 kts 111°
2026-05-07 02:40 31.46136 120.75230 18815 ft 399 kts 111°
2026-05-07 02:41 31.45475 120.78404 18768 ft 403 kts 99°
2026-05-07 02:41 31.45264 120.81709 18712 ft 407 kts 92°
2026-05-07 02:41 31.45200 120.84972 18426 ft 404 kts 91°
2026-05-07 02:41 31.45164 120.88288 17937 ft 401 kts 91°
2026-05-07 02:42 31.45137 120.91515 17307 ft 401 kts 91°
2026-05-07 02:42 31.45115 120.94769 16677 ft 395 kts 91°
2026-05-07 02:42 31.45094 120.97967 15984 ft 395 kts 91°
2026-05-07 02:42 31.45070 121.01198 15262 ft 397 kts 91°
2026-05-07 02:43 31.45048 121.04410 14817 ft 387 kts 91°
2026-05-07 02:43 31.45029 121.07496 14684 ft 372 kts 91°
2026-05-07 02:43 31.45005 121.10520 14211 ft 372 kts 91°
2026-05-07 02:43 31.44810 121.13540 13728 ft 371 kts 97°
2026-05-07 02:44 31.44485 121.16527 13241 ft 367 kts 98°
2026-05-07 02:44 31.44153 121.19476 12852 ft 364 kts 98°
2026-05-07 02:44 31.43829 121.22408 12499 ft 363 kts 98°
2026-05-07 02:44 31.43513 121.25339 11984 ft 362 kts 98°
2026-05-07 02:45 31.43199 121.28257 11427 ft 361 kts 98°
2026-05-07 02:45 31.42883 121.31157 10915 ft 358 kts 98°
2026-05-07 02:45 31.42574 121.34010 10488 ft 341 kts 99°
2026-05-07 02:45 31.42280 121.36668 10074 ft 321 kts 99°
2026-05-07 02:46 31.42002 121.39209 9504 ft 308 kts 99°
2026-05-07 02:46 31.41728 121.41691 8974 ft 308 kts 98°
2026-05-07 02:46 31.41457 121.44175 8573 ft 307 kts 98°
2026-05-07 02:46 31.41190 121.46639 8210 ft 304 kts 98°
2026-05-07 02:47 31.40921 121.49077 7885 ft 301 kts 98°
2026-05-07 02:47 31.40656 121.51491 7364 ft 298 kts 98°
2026-05-07 02:47 31.40389 121.53882 6995 ft 290 kts 97°
2026-05-07 02:47 31.40107 121.56181 6688 ft 279 kts 100°
2026-05-07 02:48 31.39589 121.58276 6276 ft 266 kts 111°
2026-05-07 02:48 31.38880 121.60220 5814 ft 256 kts 114°
2026-05-07 02:48 31.38164 121.62095 5365 ft 248 kts 114°
2026-05-07 02:48 31.37477 121.63900 4979 ft 240 kts 114°
2026-05-07 02:49 31.36798 121.65690 4633 ft 242 kts 113°
2026-05-07 02:49 31.36118 121.67489 4321 ft 241 kts 113°
2026-05-07 02:49 31.35444 121.69277 4013 ft 240 kts 114°
2026-05-07 02:49 31.34774 121.71051 3818 ft 234 kts 114°
2026-05-07 02:50 31.34034 121.72703 3692 ft 225 kts 123°
2026-05-07 02:50 31.33083 121.74125 3482 ft 220 kts 135°
2026-05-07 02:50 31.31931 121.75263 3290 ft 212 kts 146°
2026-05-07 02:50 31.30655 121.76060 3022 ft 206 kts 162°
2026-05-07 02:51 31.29292 121.76558 2716 ft 204 kts 165°
2026-05-07 02:51 31.27947 121.77067 2436 ft 200 kts 163°
2026-05-07 02:51 31.26681 121.77560 2182 ft 185 kts 164°
2026-05-07 02:51 31.25489 121.78010 1951 ft 181 kts 164°
2026-05-07 02:52 31.24310 121.78458 1707 ft 174 kts 165°
2026-05-07 02:52 31.23202 121.78880 1488 ft 163 kts 165°
2026-05-07 02:52 31.22195 121.79262 1299 ft 152 kts 165°
2026-05-07 02:52 31.21224 121.79630 1087 ft 141 kts 165°
2026-05-07 02:53 31.20329 121.79970 918 ft 130 kts 165°
2026-05-07 02:53 31.19477 121.80293 764 ft 129 kts 166°
2026-05-07 02:53 31.18622 121.80617 598 ft 129 kts 164°
2026-05-07 02:53 31.17778 121.80942 429 ft 128 kts 163°
2026-05-07 02:54 31.16942 121.81266 260 ft 126 kts 165°
2026-05-07 02:54 31.16103 121.81588 96 ft 128 kts 164°
2026-05-07 02:54 31.15278 121.81901 29 ft 108 kts 163°
2026-05-07 02:54 31.14741 121.82101 26 ft 67 kts 161°
2026-05-07 02:55 31.14497 121.82194 29 ft 17 kts 162°
2026-05-07 02:55 31.14368 121.82179 29 ft 20 kts 192°
2026-05-07 02:55 31.14229 121.82146 29 ft 21 kts 191°
2026-05-07 02:55 31.14088 121.82140 29 ft 20 kts 161°
2026-05-07 02:56 31.13945 121.82190 29 ft 19 kts 162°
2026-05-07 02:56 31.13810 121.82243 29 ft 22 kts 160°
2026-05-07 02:56 31.13674 121.82264 29 ft 15 kts 214°
2026-05-07 02:56 31.13653 121.82190 29 ft 10 kts 254°
2026-05-07 02:57 31.13628 121.82098 29 ft 14 kts 252°
2026-05-07 02:57 31.13595 121.81977 28 ft 17 kts 252°
2026-05-07 02:57 31.13557 121.81841 29 ft 17 kts 252°
2026-05-07 02:57 31.13516 121.81697 29 ft 20 kts 252°
2026-05-07 02:58 31.13457 121.81570 29 ft 15 kts 198°
2026-05-07 02:58 31.13349 121.81594 29 ft 17 kts 163°
2026-05-07 02:58 31.13267 121.81570 29 ft 12 kts 242°
2026-05-07 02:58 31.13242 121.81485 29 ft 10 kts 255°
2026-05-07 02:59 31.13240 121.81456 29 ft 0 kts 268°
2026-05-07 02:59 31.13253 121.81430 29 ft 6 kts 308°
2026-05-07 02:59 31.13275 121.81416 29 ft 1 kts 340°
2026-05-07 02:59 31.13285 121.81412 29 ft 2 kts 340°
2026-05-07 03:00 31.13287 121.81411 29 ft 0 kts 340°